This demonstration page uses our WeatherBlox Daily Observations layout. Learn more.

Left ArrowRight Arrow

Hourly Observations for November 16, 2020

Temp ( °F °C ) Dew Point ( °F °C ) Humidity (%) Winds ( mph kmh ) Pressure ( in mb ) Visibility ( mi km ) Precip ( " mm )
12:53 am 00:53 Clear 45 7.2 28 -2.2 52 52 W 10 17 30.10 1019 10 16 0.00 0.00
1:53 am 01:53 Clear 43 6.1 28 -2.2 56 56 W 13 20 30.12 1020 10 16 0.00 0.00
2:53 am 02:53 Clear 41 5 27 -2.8 57 57 WSW 7 11 30.13 1020 10 16 0.00 0.00
3:53 am 03:53 Clear 40 4.4 27 -2.8 60 60 W 8 13 30.15 1021 10 16 0.00 0.00
4:53 am 04:53 Clear 39 3.9 26 -3.3 60 60 W 7 11 30.16 1021 10 16 0.00 0.00
5:53 am 05:53 Clear 35 1.7 26 -3.3 70 70 WSW 5 7 30.18 1022 10 16 0.00 0.00
6:53 am 06:53 Clear 36 2.2 26 -3.3 67 67 WSW 3 6 30.19 1022 10 16 0.00 0.00
7:53 am 07:53 Sunny 34 1.1 26 -3.3 73 73 W 3 6 30.21 1023 10 16 0.00 0.00
8:53 am 08:53 Sunny 41 5 28 -2.2 60 60 WSW 8 13 30.23 1024 10 16 0.00 0.00
9:53 am 09:53 Sunny 44 6.7 28 -2.2 53 53 W 10 17 30.24 1024 10 16 0.00 0.00
10:53 am 10:53 Sunny 48 8.9 29 -1.7 48 48 WSW 13 20 30.25 1024 10 16 0.00 0.00
11:53 am 11:53 Sunny 50 10 28 -2.2 43 43 WSW 12 19 30.23 1024 10 16 0.00 0.00
12:53 pm 12:53 Sunny 53 11.7 27 -2.8 37 37 W 12 19 30.21 1023 10 16 0.00 0.00
1:53 pm 13:53 Sunny 54 12.2 26 -3.3 34 34 W 12 19 30.19 1022 10 16 0.00 0.00
2:53 pm 14:53 Sunny 55 12.8 26 -3.3 33 33 W 8 13 30.16 1022 10 16 0.00 0.00
3:53 pm 15:53 Partly Cloudy 54 12.2 24 -4.4 31 31 WSW 9 15 30.14 1021 10 16 0.00 0.00
4:53 pm 16:53 Mostly Cloudy 52 11.1 24 -4.4 34 34 SW 6 9 30.13 1020 10 16 0.00 0.00
5:53 pm 17:53 Clear 47 8.3 24 -4.4 41 41 S 3 6 30.11 1020 10 16 0.00 0.00
6:53 pm 18:53 Clear 40 4.4 25 -3.9 55 55 S 3 6 30.11 1020 10 16 0.00 0.00
7:53 pm 19:53 Mostly Clear 46 7.8 25 -3.9 44 44 Calm 30.11 1020 10 16 0.00 0.00
8:53 pm 20:53 Mostly Clear 46 7.8 26 -3.3 46 46 SW 5 7 30.10 1019 10 16 0.00 0.00
9:53 pm 21:53 Mostly Cloudy 48 8.9 27 -2.8 44 44 WSW 6 9 30.09 1019 10 16 0.00 0.00
10:53 pm 22:53 Clear 47 8.3 26 -3.3 44 44 WSW 8 13 30.08 1019 10 16 0.00 0.00
11:53 pm 23:53 Clear 46 7.8 27 -2.8 47 47 WSW 8 13 30.07 1018 10 16 0.00 0.00

Powered by AerisWeather